Notices

What's New in latest Release from April 7th, 2021:

- Updated Glossary, including Speed of Maximum Gust, and Total Hourly Precipitation

- Updated national and regional climate services offices contacts and prices information

- Addition of station inventory lists for 1981-2010, 1971-2000, and 1961-1990 Normals.

If you haven't already, please take our survey and provide feedback about our website: https://eccc.sondage-survey.ca/f/LanguageSelection.aspx?s=442ca660-fcf1-47c0-95a9-59707d6fd709

Hourly Data Report for November 29, 2016

VICTORIA UNIVERSITY CS
BRITISH COLUMBIA

48°27'25.200" N
123°18'16.600" W
60.10 m
1018598
71783
WYJ

Download Data

Hourly Data (November 2016)
Hourly Data Report for November 29, 2016
TIME
LST
Temp Definition
°C
Dew Point Definition
°C
Rel Hum Definition
%
Precip. Amount Definition
mm

Wind Dir Definition
10's deg

Wind Spd Definition
km/h
Visibility Definition
km
Stn Press Definition
kPa
Hmdx Definition


Wind Chill Definition


Weather Definition


00:00 6.1 4.8 91 0.0 36 4   101.28     LegendNANA
01:00 5.9 4.9 93 0.0 34 4   101.31     LegendNANA
02:00 6.1 5.1 93 0.0 36 4   101.36     LegendNANA
03:00 5.7 4.9 95 0.0 29 2   101.37     LegendNANA
04:00 5.5 4.8 95 0.0 32 1   101.34     LegendNANA
05:00 6.4 5.7 95 0.0 3 1   101.37     LegendNANA
06:00 6.8 6.3 97 0.0 4 1   101.37     LegendNANA
07:00 7.1 6.6 97 0.2 30 1   101.35     LegendNANA
08:00 7.3 6.8 97 0.5 22 2   101.36     LegendNANA
09:00 7.1 6.8 97 0.9 6 2   101.37     LegendNANA
10:00 7.9 6.8 93 0.0 15 4   101.39     LegendNANA
11:00 8.5 6.7 89 0.0 12 2   101.38     LegendNANA
12:00 9.0 7.0 88 0.0 10 3   101.29     LegendNANA
13:00 9.0 6.6 85 0.0 11 4   101.20     LegendNANA
14:00 8.4 6.0 85 0.0 9 6   101.09     LegendNANA
15:00 8.1 5.5 84 0.0 10 3   100.99     LegendNANA
16:00 8.3 6.1 86 0.0 13 2   100.84     LegendNANA
17:00 8.4 5.8 84 0.0 9 3   100.74     LegendNANA
18:00 8.7 6.3 85 0.0 14 5   100.58     LegendNANA
19:00 8.6 6.1 84 0.0 11 4   100.42     LegendNANA
20:00 7.9 5.5 85 0.0 14 4   100.30     LegendNANA
21:00 8.3 5.0 80 0.0 13 3   100.23     LegendNANA
22:00 7.7 4.0 77 0.0 0 1   100.13     LegendNANA
23:00 7.3 4.6 83 0.0 12 2   100.07     LegendNANA

Notes on Data Quality.

Legend

  • E = Estimated
  • M = Missing
  • NA = Not Available*
  • [empty] = Indicates an unobserved value
Date modified: